Location: Amanico Ergina Village
(37.7824°N, 122.4366°W)
Time: 07:43:03
(UTC+00:00)

Cosmos 1315 Rocket - Pass Details

Date: 29 October 2020
Orbit: 530 x 567 km, 81.2° (Epoch: 02 December)

Event Time Altitude Azimuth Distance (km) Brightness Sun altitude
Rises 13:17:22 0° 358° (N) 2,766 6.3 -15.4°
Reaches altitude 10° 13:19:38 10° 5° (N) 1,868 5.5 -15.0°
Maximum altitude 13:23:35 44° 78° (ENE) 786 4.1 -14.2°
Drops below altitude 10° 13:27:32 10° 151° (SSE) 1,860 6.0 -13.4°
Sets 13:29:47 0° 158° (SSE) 2,751 6.8 -13.0°
